QPF
0.00 0.00 0.00 0.00 0.00 0.00 0.00 0.00 0.00 0.00 0.00 0.00 0.00 0.00 0.00 0.00 0.00 0.00 0.00 0.00 0.00 0.00 0.00 0.00 0.00 0.00 0.00 0.00 0.00 0.00 0.00 0.00 0.00 0.00 0.00 0.00 0.00 0.00 0.00 0.00 0.00 0.00 0.00 0.00 0.00 0.00 0.00 0.00 0.00
0.00 0.00 0.00 0.00 0.00 0.00 0.00 0.00 0.00 0.00 0.00 0.00 0.00 0.00 0.00 0.00 0.00 0.00 0.00 0.00 0.00 0.00 0.00 0.00 0.00 0.00 0.00 0.00 0.00 0.00 0.00 0.00 0.00 0.00 0.00 0.00 0.00 0.00 0.00 0.00 0.00 0.00 0.00 0.00 0.00 0.00 0.00 0.00 0.00
0.00 0.00 0.00 0.00 0.00 0.00 0.00 0.00 0.00 0.00 0.00 0.00 0.00 0.00 0.00 0.00 0.00 0.00 0.00 0.00 0.00 0.00 0.00 0.00 0.00 0.00 0.00 0.00 0.00 0.00 0.00 0.00 0.00 0.00 0.00 0.00 0.00 0.00 0.00 0.00 0.00 0.00 0.00 0.00 0.00 0.00 0.00 0.00 0.00
0.00 0.00 0.00 0.00 0.00 0.00 0.00 0.00 0.00 0.00 0.00 0.00 0.00 0.00 0.00 0.00 0.00 0.00 0.00 0.00 0.00 0.00 0.00 0.00 0.00 0.00 0.00 0.00 0.00 0.00 0.00 0.00 0.00 0.00 0.00 0.00 0.00 0.00 0.00 0.00 0.00 0.00 0.00 0.00 0.00 0.00 0.00 0.00 0.00
0.00 0.00 0.00 0.00 0.00 0.00 0.00 0.00 0.00 0.00 0.00 0.00 0.00 0.00 0.00 0.00 0.00 0.00 0.00 0.00 0.00 0.00 0.00 0.00 0.00 0.00 0.00 0.00 0.00 0.00 0.00 0.00 0.00 0.00 0.00 0.00 0.00 0.00 0.00 0.00 0.00 0.00 0.00 0.00 0.00 0.00 0.00 0.00 0.00
0.00 0.00 0.00 0.00 0.00 0.00 0.00 0.00 0.00 0.00 0.00 0.00 0.00 0.00 0.00 0.00 0.00 0.00 0.00 0.00 0.00 0.00 0.00 0.00 0.00 0.00 0.00 0.00 0.00 0.00 0.00 0.00 0.00 0.00 0.00 0.00 0.00 0.00 0.00 0.00 0.00 0.00 0.00 0.00 0.00 0.00 0.00 0.00 0.00
0.00 0.00 0.00 0.00 0.00 0.00 0.00 0.00 0.00 0.00 0.00 0.00 0.00 0.00 0.00 0.00 0.00 0.00 0.00 0.00 0.00 0.00 0.00 0.00 0.00 0.00 0.00 0.00 0.00 0.00 0.00 0.00 0.00 0.00 0.00 0.00 0.00 0.00 0.00 0.00 0.00 0.00 0.00 0.00 0.00 0.00 0.00 0.00 0.00
0.00 0.00 0.00 0.00 0.00 0.00 0.00 0.00 0.00 0.00 0.00 0.00 0.00 0.00 0.00 0.00 0.00 0.00 0.00 0.00 0.00 0.00 0.00 0.00 0.00 0.00 0.00 0.00 0.00 0.00 0.00 0.00 0.00 0.00 0.00 0.00 0.00 0.00 0.00 0.00 0.00 0.00 0.00 0.00 0.00 0.00 0.00 0.00 0.00
0.00 0.00 0.00 0.00 0.00 0.00 0.00 0.00 0.00 0.00 0.00 0.00 0.00 0.00 0.00 0.00 0.00 0.00 0.00 0.00 0.00 0.00 0.00 0.00 0.00 0.00 0.00 0.00 0.00 0.00 0.00 0.00 0.00 0.00 0.00 0.00 0.00 0.00 0.00 0.00 0.00 0.00 0.00 0.00 0.00 0.00 0.00 0.00 0.00
0.00 0.00 0.00 0.00 0.00 0.00 0.00 0.00 0.00 0.00 0.00 0.00 0.00 0.00 0.00 0.00 0.00 0.00 0.00 0.00 0.00 0.00 0.00 0.00 0.00 0.00 0.00 0.00 0.00 0.00 0.00 0.00 0.00 0.00 0.00 0.00 0.00 0.00 0.00 0.00 0.00 0.00 0.00 0.00 0.00 0.00 0.00 0.00 0.00
0.00 0.00 0.00 0.00 0.00 0.00 0.00 0.00 0.00 0.00 0.00 0.00 0.00 0.00 0.00 0.00 0.00 0.00 0.00 0.00 0.00 0.00 0.00 0.00 0.00 0.00 0.00 0.00 0.00 0.00 0.00 0.00 0.00 0.00 0.00 0.00 0.00 0.00 0.00 0.00 0.00 0.00 0.00 0.00 0.00 0.00 0.00 0.00 0.00
0.00 0.00 0.00 0.00 0.00 0.00 0.00 0.00 0.00 0.00 0.00 0.00 0.00 0.00 0.00 0.00 0.00 0.00 0.00 0.00 0.00 0.00 0.00 0.00 0.00 0.00 0.00 0.00 0.00 0.00 0.00 0.00 0.00 0.00 0.00 0.00 0.00 0.00 0.00 0.00 0.00 0.00 0.00 0.00 0.00 0.00 0.00 0.00 0.00
0.00 0.00 0.00 0.00 0.00 0.00 0.00 0.00 0.00 0.00 0.00 0.00 0.00 0.00 0.00 0.00 0.00 0.00 0.00 0.00 0.00 0.00 0.00 0.00 0.00 0.00 0.00 0.00 0.00 0.00 0.00 0.00 0.00 0.00 0.00 0.00 0.00 0.00 0.00 0.00 0.00 0.00 0.00 0.00 0.00 0.00 0.00 0.00 0.00
0.00 0.00 0.00 0.00 0.00 0.00 0.00 0.00 0.00 0.00 0.00 0.00 0.00 0.00 0.00 0.00 0.00 0.00 0.00 0.00 0.00 0.00 0.00 0.00 0.00 0.00 0.00 0.00 0.00 0.00 0.00 0.00 0.00 0.00 0.00 0.00 0.00 0.00 0.00 0.00 0.00 0.00 0.00 0.00 0.00 0.00 0.00 0.00 0.00
0.00 0.00 0.00 0.00 0.00 0.00 0.00 0.00 0.00 0.00 0.00 0.00 0.00 0.00 0.00 0.00 0.00 0.00 0.00 0.00 0.00 0.00 0.00 0.00 0.00 0.00 0.00 0.00 0.00 0.00 0.00 0.00 0.00 0.00 0.00 0.00 0.00 0.00 0.00 0.00 0.00 0.00 0.00 0.00 0.00 0.00 0.00 0.00 0.00
0.00 0.00 0.00 0.00 0.00 0.00 0.00 0.00 0.00 0.00 0.00 0.00 0.00 0.00 0.00 0.00 0.00 0.00 0.00 0.00 0.00 0.00 0.00 0.00 0.00 0.00 0.00 0.00 0.00 0.00 0.00 0.00 0.00 0.00 0.00 0.00 0.00 0.00 0.00 0.00 0.00 0.00 0.00 0.00 0.00 0.00 0.00 0.00 0.00
0.00 0.00 0.00 0.00 0.00 0.00 0.00 0.00 0.00 0.00 0.00 0.00 0.00 0.00 0.00 0.00 0.00 0.00 0.00 0.00 0.00 0.00 0.00 0.00 0.00 0.00 0.00 0.00 0.00 0.00 0.00 0.00 0.00 0.00 0.00 0.00 0.00 0.00 0.00 0.00 0.00 0.00 0.00 0.00 0.00 0.00 0.00 0.00 0.00
0.00 0.00 0.00 0.00 0.00 0.00 0.00 0.00 0.00 0.00 0.00 0.00 0.00 0.00 0.00 0.00 0.00 0.00 0.00 0.00 0.00 0.00 0.00 0.00 0.00 0.00 0.00 0.00 0.00 0.00 0.00 0.00 0.00 0.00 0.00 0.00 0.00 0.00 0.00 0.00 0.00 0.00 0.00 0.00 0.00 0.00 0.00 0.00 0.00
0.00 0.00 0.00 0.00 0.00 0.00 0.00 0.00 0.00 0.00 0.00 0.00 0.00 0.00 0.00 0.00 0.00 0.00 0.00 0.00 0.00 0.00 0.00 0.00 0.00 0.00 0.00 0.00 0.00 0.00 0.00 0.00 0.00 0.00 0.00 0.00 0.00 0.00 0.00 0.00 0.00 0.00 0.00 0.00 0.00 0.00 0.00 0.00 0.00
0.00 0.00 0.00 0.00 0.00 0.00 0.00 0.00 0.00 0.00 0.00 0.00 0.00 0.00 0.00 0.00 0.00 0.00 0.00 0.00 0.00 0.00 0.00 0.00 0.00 0.00 0.00 0.00 0.00 0.00 0.00 0.00 0.00 0.00 0.00 0.00 0.00 0.00 0.00 0.00 0.00 0.00 0.00 0.00 0.00 0.00 0.00 0.00 0.00
0.00 0.00 0.00 0.00 0.00 0.00 0.00 0.00 0.00 0.00 0.00 0.00 0.00 0.00 0.00 0.00 0.00 0.00 0.00 0.00 0.00 0.00 0.00 0.00 0.00 0.00 0.00 0.00 0.00 0.00 0.00 0.00 0.00 0.00 0.00 0.00 0.00 0.02 0.04 0.01 0.00 0.00 0.01 0.00 0.00 0.02 0.06 0.06 0.05
0.00 0.00 0.00 0.00 0.00 0.00 0.00 0.00 0.00 0.00 0.00 0.00 0.00 0.00 0.00 0.00 0.00 0.00 0.00 0.00 0.00 0.00 0.00 0.00 0.00 0.00 0.00 0.00 0.00 0.00 0.00 0.00 0.00 0.00 0.00 0.00 0.00 0.00 0.03 0.05 0.02 0.03 0.04 0.04 0.03 0.08 0.10 0.11 0.06
0.00 0.00 0.00 0.00 0.00 0.00 0.00 0.00 0.00 0.00 0.00 0.00 0.00 0.00 0.00 0.00 0.00 0.00 0.00 0.00 0.00 0.00 0.00 0.00 0.00 0.00 0.00 0.00 0.00 0.00 0.00 0.00 0.00 0.00 0.00 0.00 0.00 0.04 0.05 0.05 0.02 0.01 0.01 0.01 0.01 0.02 0.04 0.03 0.07
0.00 0.00 0.00 0.00 0.00 0.00 0.00 0.00 0.00 0.00 0.00 0.00 0.00 0.00 0.00 0.00 0.00 0.00 0.00 0.00 0.00 0.00 0.00 0.00 0.00 0.00 0.00 0.00 0.00 0.00 0.00 0.00 0.00 0.00 0.00 0.00 0.00 0.10 0.10 0.11 0.04 0.03 0.01 0.02 0.02 0.04 0.04 0.03 0.04
0.00 0.00 0.00 0.00 0.00 0.00 0.00 0.00 0.00 0.00 0.00 0.00 0.00 0.00 0.00 0.00 0.00 0.00 0.00 0.00 0.00 0.00 0.00 0.00 0.00 0.00 0.00 0.00 0.00 0.00 0.00 0.00 0.00 0.00 0.00 0.00 0.00 0.02 0.01 0.04 0.02 0.02 0.02 0.02 0.02 0.05 0.07 0.07 0.08
0.00 0.00 0.00 0.00 0.00 0.00 0.00 0.00 0.00 0.00 0.00 0.00 0.00 0.00 0.00 0.00 0.00 0.00 0.00 0.00 0.00 0.00 0.00 0.00 0.00 0.00 0.00 0.00 0.00 0.00 0.00 0.00 0.00 0.00 0.00 0.00 0.00 0.00 0.00 0.01 0.03 0.03 0.01 0.00 0.01 0.03 0.05 0.07 0.10
0.00 0.00 0.00 0.00 0.00 0.00 0.00 0.00 0.00 0.00 0.00 0.00 0.00 0.00 0.00 0.00 0.00 0.00 0.00 0.00 0.00 0.00 0.00 0.00 0.00 0.00 0.00 0.00 0.00 0.00 0.00 0.00 0.00 0.00 0.00 0.00 0.00 0.00 0.00 0.00 0.00 0.00 0.00 0.01 0.01 0.02 0.05 0.07 0.06
0.00 0.00 0.00 0.00 0.00 0.00 0.00 0.00 0.00 0.00 0.00 0.00 0.00 0.00 0.00 0.00 0.00 0.00 0.00 0.00 0.00 0.00 0.00 0.00 0.00 0.00 0.00 0.00 0.00 0.00 0.00 0.00 0.00 0.00 0.00 0.00 0.00 0.00 0.00 0.00 0.00 0.00 0.00 0.00 0.01 0.02 0.01 0.02 0.04
0.00 0.00 0.00 0.00 0.00 0.00 0.00 0.00 0.00 0.00 0.00 0.00 0.00 0.00 0.00 0.00 0.00 0.00 0.00 0.00 0.00 0.00 0.00 0.00 0.00 0.00 0.00 0.00 0.00 0.00 0.00 0.00 0.00 0.00 0.00 0.00 0.00 0.00 0.00 0.00 0.00 0.00 0.00 0.00 0.01 0.02 0.03 0.03 0.01
0.00 0.00 0.00 0.00 0.00 0.00 0.00 0.00 0.00 0.00 0.00 0.00 0.00 0.00 0.00 0.00 0.00 0.00 0.00 0.00 0.00 0.00 0.00 0.00 0.00 0.00 0.00 0.00 0.00 0.00 0.00 0.00 0.00 0.00 0.00 0.00 0.00 0.00 0.00 0.00 0.00 0.00 0.00 0.00 0.00 0.01 0.01 0.01 0.01
MSLP
1013.67 1013.52 1013.57 1013.27 1013.56 1012.97 1012.34 1012.30 1012.16 1012.06 1012.14 1012.23 1012.22 1012.12 1011.98 1011.83 1011.90 1012.54 1012.82 1012.90 1013.32 1013.89 1014.41 1015.16 1015.78 1016.31 1016.12 1016.22 1016.48 1016.94 1017.22 1017.35 1017.66 1017.97 1018.46 1018.75 1019.01 1019.27 1019.37 1019.52 1019.65 1019.76 1019.88 1020.01 1020.14 1020.26 1020.54 1020.69 1020.82
1013.58 1013.48 1013.36 1013.42 1013.11 1012.42 1012.19 1012.13 1011.87 1012.00 1011.96 1012.04 1012.09 1011.92 1011.78 1011.51 1011.89 1012.28 1012.70 1012.96 1013.23 1013.94 1014.63 1015.18 1015.86 1016.25 1016.32 1016.33 1016.55 1017.05 1017.32 1017.62 1017.88 1018.22 1018.57 1018.93 1019.15 1019.35 1019.61 1019.86 1019.91 1020.00 1020.04 1020.11 1020.24 1020.40 1020.56 1020.80 1020.92
1013.60 1013.47 1013.13 1013.26 1013.27 1012.55 1011.97 1011.65 1011.74 1011.74 1011.78 1011.79 1011.80 1011.78 1011.67 1011.70 1011.84 1012.04 1012.51 1013.04 1013.46 1014.15 1014.74 1015.42 1015.91 1016.23 1016.45 1016.47 1016.63 1017.03 1017.41 1017.57 1017.83 1018.29 1018.56 1018.93 1019.25 1019.51 1019.70 1019.95 1020.08 1020.17 1020.19 1020.27 1020.38 1020.57 1020.83 1020.96 1021.10
1013.49 1013.37 1013.91 1013.28 1012.98 1012.65 1012.18 1011.56 1011.48 1011.47 1011.48 1011.60 1011.66 1011.60 1011.90 1012.13 1012.07 1012.20 1012.75 1013.22 1013.70 1014.33 1014.91 1015.62 1015.89 1016.14 1016.36 1016.39 1016.74 1017.11 1017.39 1017.72 1017.97 1018.47 1018.78 1019.00 1019.25 1019.45 1019.73 1019.97 1020.13 1020.21 1020.27 1020.34 1020.51 1020.72 1020.95 1021.10 1021.27
1013.72 1013.55 1013.24 1012.97 1012.87 1012.53 1012.13 1011.65 1011.42 1011.15 1011.23 1011.30 1011.55 1011.49 1011.81 1012.29 1012.70 1012.73 1012.98 1013.36 1013.60 1014.37 1014.99 1015.57 1016.05 1016.19 1016.48 1016.48 1016.81 1017.11 1017.41 1017.84 1018.14 1018.51 1018.79 1018.91 1019.16 1019.51 1019.77 1019.92 1020.05 1020.21 1020.38 1020.54 1020.76 1020.93 1021.12 1021.24 1021.39
1013.68 1013.97 1013.42 1013.02 1012.58 1012.24 1011.86 1011.45 1011.17 1011.05 1010.96 1011.16 1011.43 1011.48 1011.73 1012.47 1012.84 1013.03 1013.17 1013.41 1013.74 1014.32 1014.92 1015.40 1016.17 1016.35 1016.58 1016.70 1016.90 1017.10 1017.37 1017.68 1018.08 1018.46 1018.82 1019.07 1019.28 1019.55 1019.80 1020.03 1020.19 1020.28 1020.40 1020.63 1020.82 1020.97 1021.15 1021.22 1021.30
1013.56 1013.76 1013.80 1013.35 1012.84 1012.05 1011.48 1011.24 1010.82 1010.48 1010.39 1010.50 1010.91 1011.04 1011.81 1012.19 1012.70 1013.26 1013.46 1013.70 1014.03 1014.59 1015.19 1015.46 1015.80 1016.23 1016.52 1016.58 1016.79 1017.04 1017.31 1017.62 1017.99 1018.34 1018.71 1019.00 1019.26 1019.56 1019.80 1020.11 1020.34 1020.47 1020.58 1020.56 1020.75 1020.96 1021.02 1021.14 1021.21
1013.67 1013.75 1013.82 1013.41 1012.80 1012.09 1011.38 1010.94 1010.62 1010.30 1009.91 1010.36 1010.61 1010.44 1011.13 1011.71 1012.78 1013.61 1014.07 1014.36 1014.35 1014.63 1015.13 1015.16 1015.46 1015.80 1016.28 1016.49 1016.85 1017.04 1017.33 1017.49 1017.78 1018.17 1018.63 1018.95 1019.26 1019.52 1019.88 1020.05 1020.21 1020.30 1020.42 1020.50 1020.67 1020.89 1021.04 1021.11 1021.06
1013.89 1013.68 1013.44 1013.03 1012.53 1011.91 1011.43 1011.11 1010.26 1010.14 1009.85 1010.06 1010.29 1010.63 1011.00 1011.80 1012.84 1013.62 1014.06 1014.54 1014.73 1015.03 1015.05 1015.28 1015.39 1015.53 1015.85 1016.10 1016.56 1017.01 1017.19 1017.47 1017.81 1018.15 1018.57 1018.96 1018.99 1019.34 1019.64 1019.83 1020.12 1020.27 1020.33 1020.51 1020.63 1020.72 1020.81 1020.82 1020.89
1013.75 1013.53 1013.03 1012.67 1012.22 1011.77 1011.49 1011.24 1010.42 1009.98 1009.85 1009.78 1010.03 1010.81 1011.44 1011.91 1012.50 1013.03 1013.53 1013.98 1014.09 1014.37 1014.85 1015.09 1015.26 1015.47 1015.71 1015.89 1016.19 1016.50 1016.76 1017.05 1017.37 1017.82 1018.22 1018.54 1018.93 1019.21 1019.38 1019.68 1020.09 1020.12 1020.21 1020.39 1020.47 1020.54 1020.63 1020.66 1020.39
1013.91 1013.29 1012.91 1012.35 1012.02 1011.84 1011.26 1010.75 1010.43 1009.73 1009.11 1009.03 1009.19 1009.96 1011.09 1011.61 1012.08 1012.40 1012.72 1012.98 1013.13 1013.74 1014.35 1014.55 1014.90 1015.12 1015.38 1015.41 1015.79 1016.03 1016.24 1016.51 1016.91 1017.33 1017.79 1018.26 1018.73 1019.15 1019.31 1019.41 1019.54 1019.69 1020.07 1020.04 1020.21 1020.27 1020.17 1020.25 1020.22
1013.58 1012.99 1012.63 1012.15 1012.00 1011.86 1011.24 1010.62 1010.15 1009.64 1008.58 1008.64 1008.97 1009.55 1010.53 1010.86 1011.11 1011.38 1011.68 1012.03 1012.77 1013.38 1013.63 1014.09 1014.53 1014.80 1015.00 1015.15 1015.31 1015.46 1015.89 1016.25 1016.53 1016.92 1017.37 1017.80 1018.34 1018.68 1018.87 1018.96 1019.14 1019.35 1019.44 1019.66 1019.90 1019.86 1019.93 1020.06 1020.18
1013.25 1012.64 1012.38 1012.07 1011.85 1011.57 1011.31 1010.32 1009.91 1009.06 1008.46 1008.49 1008.81 1009.28 1009.54 1009.87 1010.00 1010.37 1010.83 1011.67 1012.19 1012.50 1012.92 1013.55 1014.05 1014.38 1014.61 1015.00 1014.91 1015.16 1015.44 1015.77 1015.99 1016.49 1016.94 1017.30 1017.78 1018.10 1018.35 1018.58 1018.78 1018.98 1019.14 1019.27 1019.44 1019.60 1019.74 1019.89 1020.03
1012.84 1012.63 1012.00 1011.54 1011.03 1011.04 1010.68 1010.14 1009.98 1008.47 1008.18 1008.27 1008.68 1008.60 1008.85 1009.00 1008.95 1009.65 1010.27 1010.43 1011.06 1011.55 1011.83 1012.66 1013.33 1013.87 1014.41 1014.73 1014.71 1014.90 1015.27 1015.46 1015.77 1016.04 1016.36 1016.94 1017.15 1017.57 1017.83 1018.08 1018.25 1018.45 1018.71 1018.73 1018.92 1019.12 1019.38 1019.56 1019.64
1012.79 1012.66 1011.99 1011.35 1010.93 1010.55 1010.18 1009.60 1009.08 1008.20 1008.52 1008.26 1008.21 1008.23 1008.33 1008.33 1008.65 1008.73 1008.52 1008.79 1009.20 1009.98 1011.12 1011.78 1012.43 1013.04 1013.50 1013.85 1014.09 1014.49 1014.83 1015.31 1015.51 1015.67 1016.08 1016.39 1016.76 1017.07 1017.26 1017.47 1017.74 1017.91 1018.28 1018.49 1018.79 1019.00 1019.18 1019.22 1019.16
1012.88 1012.89 1012.01 1011.32 1011.05 1010.64 1010.43 1009.33 1008.43 1008.23 1008.40 1008.01 1008.01 1007.76 1007.79 1007.58 1007.78 1007.68 1007.85 1008.30 1009.07 1009.69 1010.19 1011.17 1011.73 1012.35 1012.84 1013.12 1013.58 1014.03 1014.44 1014.79 1014.96 1015.27 1015.62 1015.87 1016.07 1016.44 1016.80 1017.01 1017.14 1017.46 1017.83 1018.05 1018.18 1018.40 1018.57 1018.69 1018.60
1013.20 1012.89 1012.55 1011.38 1011.09 1010.95 1010.57 1009.68 1008.50 1007.97 1008.24 1007.60 1007.30 1007.09 1006.96 1006.91 1007.13 1007.08 1007.26 1007.63 1008.15 1008.82 1009.53 1010.12 1010.77 1011.17 1011.97 1012.48 1012.89 1013.45 1013.84 1014.24 1014.41 1014.81 1014.99 1015.28 1015.56 1015.83 1016.15 1016.39 1016.59 1017.04 1017.30 1017.53 1017.74 1017.91 1018.08 1017.89 1017.97
1013.25 1013.13 1012.97 1012.30 1011.32 1010.81 1010.17 1009.51 1008.59 1007.81 1007.75 1007.18 1006.77 1006.54 1006.38 1006.35 1005.90 1005.86 1006.41 1006.99 1007.41 1008.02 1008.70 1009.30 1009.88 1010.32 1010.95 1011.79 1012.37 1012.75 1013.14 1013.33 1013.58 1013.81 1014.03 1014.42 1014.78 1015.14 1015.53 1015.72 1016.12 1016.54 1016.74 1016.88 1017.11 1017.29 1017.35 1017.24 1017.22
1013.59 1013.38 1013.07 1012.37 1011.37 1011.04 1009.62 1009.17 1007.99 1006.92 1006.99 1006.65 1006.32 1006.22 1005.98 1006.01 1005.40 1005.81 1005.97 1006.50 1006.98 1007.42 1007.81 1007.88 1008.80 1009.28 1010.18 1010.66 1011.26 1011.62 1011.49 1012.22 1012.58 1012.75 1013.10 1013.57 1014.01 1014.40 1014.72 1014.90 1015.22 1015.66 1015.85 1015.98 1016.31 1016.56 1016.68 1016.69 1017.03
1013.55 1013.31 1012.85 1012.22 1011.45 1010.95 1009.32 1008.58 1007.10 1006.82 1006.53 1006.22 1005.94 1005.87 1005.96 1005.92 1005.66 1005.35 1005.74 1006.03 1006.20 1006.04 1006.50 1007.29 1007.40 1008.35 1009.02 1009.41 1009.68 1010.22 1010.61 1010.96 1011.43 1011.75 1011.86 1012.39 1012.89 1013.29 1013.54 1013.93 1014.29 1014.76 1015.15 1015.34 1015.51 1015.79 1015.81 1015.85 1016.08
1013.16 1013.12 1012.62 1012.31 1011.63 1010.80 1010.07 1008.35 1007.44 1006.75 1006.54 1006.09 1005.77 1005.66 1005.78 1005.97 1005.80 1005.43 1005.28 1005.56 1005.52 1005.42 1005.57 1006.04 1006.27 1007.15 1008.07 1008.63 1009.43 1010.03 1010.46 1010.59 1010.61 1010.51 1010.90 1011.27 1011.90 1012.38 1012.97 1013.18 1013.51 1013.87 1014.25 1014.28 1014.56 1014.82 1014.91 1014.89 1015.35
1012.60 1012.23 1012.08 1012.06 1011.96 1010.95 1010.41 1009.09 1007.83 1007.07 1006.57 1006.01 1005.76 1005.76 1005.72 1005.77 1005.89 1005.65 1005.36 1004.98 1004.93 1005.13 1005.43 1005.83 1006.48 1007.09 1007.82 1008.31 1008.54 1008.76 1008.78 1008.88 1008.83 1009.40 1009.91 1010.42 1010.96 1011.60 1012.09 1012.38 1012.41 1013.04 1013.31 1013.33 1013.34 1013.80 1014.08 1014.51 1014.71
1011.89 1011.78 1011.90 1011.86 1011.73 1011.38 1010.65 1009.93 1007.55 1007.17 1006.55 1006.11 1005.68 1005.92 1005.97 1005.98 1006.04 1005.71 1005.51 1005.32 1004.92 1005.01 1005.23 1005.70 1006.10 1006.58 1007.21 1007.83 1008.01 1008.31 1008.35 1008.17 1008.47 1008.95 1009.29 1009.67 1010.09 1010.50 1010.80 1011.22 1011.61 1011.84 1012.02 1012.27 1012.53 1012.86 1013.10 1013.30 1013.79
1011.23 1011.75 1011.89 1012.05 1011.81 1011.30 1009.75 1009.16 1007.50 1006.55 1006.05 1006.12 1005.86 1005.82 1005.97 1006.07 1006.04 1005.82 1005.59 1005.38 1005.33 1005.33 1005.22 1005.52 1005.84 1006.16 1006.67 1007.26 1007.67 1007.70 1007.87 1008.22 1008.46 1008.51 1008.64 1008.87 1009.22 1009.78 1009.88 1010.36 1010.50 1010.83 1011.17 1011.38 1011.64 1011.90 1012.24 1012.36 1012.69
1010.95 1011.29 1011.81 1011.87 1011.67 1010.30 1009.79 1009.16 1006.85 1006.06 1005.77 1006.00 1005.99 1005.92 1006.06 1006.09 1005.87 1005.61 1005.47 1005.38 1005.47 1005.74 1005.76 1005.86 1005.96 1006.01 1006.39 1006.56 1006.68 1006.95 1007.20 1007.55 1007.66 1007.91 1008.01 1008.18 1008.32 1008.77 1008.86 1009.57 1009.88 1010.16 1010.30 1010.61 1010.95 1011.12 1011.36 1011.62 1012.10
1009.93 1010.27 1010.73 1010.49 1010.79 1010.11 1009.98 1008.50 1006.36 1005.55 1005.43 1005.78 1006.23 1006.52 1006.16 1005.84 1005.90 1005.64 1005.57 1005.58 1005.61 1005.76 1005.96 1006.33 1006.52 1006.41 1006.34 1006.30 1006.16 1006.30 1006.72 1006.84 1006.85 1006.91 1006.92 1007.04 1007.19 1007.35 1007.91 1008.34 1008.89 1009.21 1009.48 1009.78 1009.96 1010.16 1010.59 1010.91 1011.42
1009.04 1009.61 1008.81 1009.84 1010.77 1010.29 1008.79 1007.72 1006.31 1005.46 1005.46 1005.73 1006.07 1006.50 1006.20 1006.09 1006.04 1005.90 1005.48 1005.46 1005.40 1005.40 1005.64 1005.82 1005.92 1005.96 1006.14 1006.35 1006.26 1005.87 1005.98 1006.06 1005.80 1006.10 1006.41 1006.40 1006.56 1006.70 1007.18 1007.64 1007.90 1008.20 1008.49 1008.76 1009.08 1009.38 1009.77 1010.42 1010.86
1007.58 1008.00 1009.17 1009.53 1009.54 1009.12 1007.74 1007.08 1005.78 1005.31 1005.23 1005.41 1005.78 1006.21 1006.45 1006.59 1006.59 1006.59 1006.30 1006.13 1005.96 1005.66 1005.56 1005.58 1005.55 1005.31 1005.17 1005.28 1005.34 1005.45 1005.52 1005.27 1005.28 1005.62 1005.59 1005.84 1006.01 1006.31 1006.47 1006.77 1007.12 1007.40 1007.69 1008.10 1008.50 1008.88 1009.44 1009.93 1010.40
1007.56 1007.47 1007.80 1007.99 1008.13 1007.59 1007.00 1005.58 1004.70 1004.42 1004.26 1005.16 1005.63 1006.16 1006.32 1006.52 1006.59 1006.59 1006.58 1006.39 1006.24 1006.07 1005.84 1005.51 1005.31 1005.08 1004.68 1004.59 1004.62 1004.62 1004.55 1004.81 1005.25 1005.20 1005.20 1005.27 1005.58 1005.84 1006.03 1006.06 1006.37 1006.68 1007.09 1007.52 1007.91 1008.33 1008.89 1009.40 1009.85
1005.34 1005.39 1006.21 1006.67 1007.45 1007.29 1006.35 1004.45 1004.16 1004.15 1004.48 1005.11 1005.85 1006.34 1006.55 1006.87 1006.91 1006.87 1006.82 1006.83 1006.58 1006.41 1006.02 1005.63 1005.27 1005.05 1004.47 1004.08 1003.80 1003.84 1004.03 1004.43 1004.60 1004.59 1004.69 1004.94 1005.02 1005.33 1005.45 1005.79 1005.98 1006.36 1006.72 1006.99 1007.34 1007.74 1008.16 1008.54 1008.92
Thickness
5763 5765 5765 5763 5744 5738 5731 5738 5745 5744 5746 5755 5756 5752 5751 5753 5745 5737 5762 5765 5761 5758 5754 5750 5747 5745 5747 5749 5749 5746 5744 5744 5741 5739 5734 5732 5729 5727 5726 5725 5723 5723 5722 5721 5720 5718 5714 5712 5710
5764 5765 5765 5749 5737 5730 5734 5740 5742 5746 5753 5757 5755 5754 5752 5751 5760 5759 5759 5764 5761 5757 5751 5749 5746 5744 5746 5748 5748 5745 5744 5742 5740 5737 5733 5730 5729 5727 5724 5722 5722 5721 5721 5720 5719 5716 5714 5711 5709
5763 5765 5757 5742 5724 5727 5734 5747 5747 5753 5758 5756 5752 5760 5757 5754 5763 5764 5766 5763 5758 5754 5751 5747 5746 5744 5745 5748 5748 5745 5743 5743 5741 5737 5733 5730 5728 5726 5724 5722 5721 5720 5719 5718 5717 5715 5712 5711 5708
5761 5762 5749 5741 5727 5736 5741 5753 5754 5755 5760 5761 5757 5749 5759 5763 5763 5767 5764 5760 5754 5751 5748 5745 5746 5746 5746 5748 5747 5745 5744 5742 5740 5736 5732 5731 5729 5727 5724 5722 5720 5719 5718 5718 5716 5713 5711 5709 5706
5758 5750 5738 5735 5731 5738 5747 5755 5759 5756 5756 5756 5755 5750 5752 5760 5762 5763 5761 5757 5754 5749 5746 5744 5744 5745 5745 5747 5747 5745 5743 5740 5738 5735 5732 5731 5728 5725 5724 5721 5719 5718 5716 5714 5712 5710 5708 5706 5704
5747 5740 5730 5729 5734 5744 5751 5760 5762 5758 5761 5757 5752 5752 5756 5761 5758 5757 5759 5756 5753 5750 5746 5745 5743 5744 5744 5744 5744 5744 5742 5740 5737 5734 5731 5729 5727 5724 5722 5719 5717 5716 5714 5712 5710 5709 5706 5705 5704
5742 5734 5719 5721 5729 5741 5753 5764 5762 5765 5764 5761 5764 5753 5757 5758 5760 5757 5755 5753 5751 5747 5744 5744 5744 5744 5744 5746 5744 5743 5742 5739 5737 5734 5731 5728 5726 5723 5721 5717 5715 5713 5712 5711 5709 5707 5706 5703 5702
5744 5738 5718 5721 5727 5736 5757 5762 5767 5766 5768 5774 5771 5758 5757 5764 5761 5755 5751 5748 5749 5748 5744 5746 5747 5746 5743 5744 5743 5743 5741 5740 5738 5734 5730 5727 5724 5722 5718 5716 5714 5713 5711 5709 5707 5705 5703 5701 5700
5744 5730 5721 5727 5729 5741 5758 5752 5771 5775 5772 5771 5772 5768 5770 5768 5761 5752 5749 5745 5745 5744 5746 5744 5746 5747 5746 5745 5743 5740 5740 5738 5736 5733 5730 5726 5724 5721 5718 5716 5713 5711 5709 5707 5705 5703 5702 5701 5699
5736 5728 5729 5740 5745 5744 5750 5748 5759 5764 5763 5767 5770 5768 5767 5766 5761 5755 5750 5747 5748 5748 5748 5749 5747 5747 5747 5746 5745 5743 5741 5739 5737 5733 5729 5726 5722 5719 5717 5714 5712 5710 5708 5706 5704 5702 5700 5699 5698
5728 5729 5736 5742 5746 5747 5749 5754 5760 5760 5761 5772 5773 5774 5766 5765 5763 5761 5759 5757 5756 5754 5752 5752 5750 5749 5748 5748 5746 5744 5743 5741 5737 5734 5730 5725 5721 5717 5715 5713 5712 5709 5706 5704 5701 5700 5699 5697 5696
5728 5738 5740 5745 5746 5742 5744 5755 5755 5759 5772 5780 5780 5779 5771 5768 5768 5767 5766 5764 5759 5755 5755 5753 5751 5750 5748 5747 5746 5745 5741 5739 5736 5734 5730 5726 5721 5718 5715 5713 5711 5708 5706 5703 5699 5698 5698 5695 5693
5729 5737 5741 5745 5744 5744 5745 5751 5753 5762 5777 5780 5778 5777 5776 5776 5777 5777 5774 5768 5764 5761 5759 5755 5752 5751 5749 5746 5745 5743 5741 5738 5737 5733 5730 5727 5722 5718 5715 5712 5709 5706 5703 5701 5699 5697 5694 5691 5688
5737 5736 5741 5746 5750 5746 5745 5749 5746 5768 5774 5775 5772 5776 5779 5780 5784 5780 5774 5773 5770 5767 5766 5761 5755 5750 5745 5743 5742 5741 5738 5736 5734 5732 5729 5725 5722 5717 5715 5711 5709 5706 5702 5700 5698 5695 5692 5688 5685
5736 5727 5734 5742 5745 5745 5749 5746 5745 5768 5763 5765 5771 5775 5777 5778 5782 5781 5786 5784 5783 5777 5768 5763 5759 5753 5749 5746 5743 5739 5736 5732 5731 5729 5726 5723 5720 5716 5714 5711 5708 5704 5701 5698 5693 5690 5687 5685 5684
5727 5723 5719 5739 5740 5744 5744 5735 5758 5767 5758 5762 5765 5770 5773 5779 5781 5786 5787 5786 5782 5776 5770 5763 5760 5754 5749 5746 5742 5738 5734 5731 5729 5726 5723 5721 5720 5716 5713 5710 5708 5704 5699 5695 5693 5690 5688 5684 5684
5714 5712 5710 5724 5738 5734 5735 5728 5752 5764 5756 5760 5766 5771 5772 5776 5779 5784 5786 5785 5784 5778 5772 5767 5763 5759 5752 5747 5742 5738 5734 5730 5728 5724 5722 5720 5717 5715 5712 5709 5706 5701 5697 5694 5692 5689 5686 5686 5683
5704 5705 5705 5705 5729 5733 5729 5726 5744 5754 5751 5758 5763 5769 5772 5774 5783 5789 5786 5784 5783 5779 5774 5769 5765 5761 5756 5748 5743 5739 5734 5733 5730 5727 5725 5721 5717 5714 5711 5708 5703 5698 5696 5694 5691 5688 5687 5686 5682
5706 5702 5700 5708 5725 5720 5732 5729 5742 5760 5756 5757 5764 5764 5770 5772 5787 5788 5785 5781 5778 5776 5773 5774 5766 5763 5756 5752 5745 5742 5741 5736 5733 5731 5727 5723 5718 5714 5711 5708 5704 5699 5698 5696 5692 5688 5684 5681 5676
5702 5698 5702 5710 5717 5719 5737 5733 5751 5753 5756 5760 5765 5764 5764 5766 5774 5781 5781 5779 5778 5781 5778 5772 5772 5764 5759 5756 5754 5749 5745 5742 5738 5735 5732 5726 5721 5717 5715 5711 5707 5702 5696 5695 5691 5685 5681 5680 5676
5697 5695 5698 5699 5709 5718 5718 5733 5740 5752 5753 5760 5765 5765 5764 5761 5764 5771 5776 5775 5778 5780 5780 5775 5775 5767 5760 5756 5749 5744 5741 5739 5738 5738 5733 5729 5723 5718 5712 5710 5707 5703 5697 5694 5690 5684 5679 5676 5673
5686 5703 5705 5698 5694 5697 5711 5705 5724 5738 5743 5753 5758 5758 5760 5761 5761 5765 5768 5773 5776 5777 5777 5772 5767 5761 5756 5752 5749 5746 5744 5742 5745 5739 5735 5729 5722 5716 5710 5707 5706 5699 5696 5694 5691 5684 5678 5670 5666
5694 5703 5699 5696 5692 5689 5696 5694 5730 5728 5737 5746 5754 5751 5752 5754 5753 5756 5761 5764 5770 5772 5771 5769 5765 5760 5756 5750 5748 5743 5741 5744 5741 5737 5732 5728 5723 5718 5713 5707 5703 5700 5697 5693 5687 5682 5677 5672 5664
5700 5692 5687 5684 5683 5670 5706 5702 5721 5730 5738 5742 5750 5752 5750 5748 5748 5753 5758 5760 5761 5763 5766 5764 5760 5757 5753 5747 5742 5740 5737 5733 5730 5730 5728 5725 5722 5715 5714 5705 5704 5699 5694 5690 5686 5681 5674 5669 5663
5691 5683 5664 5662 5661 5676 5688 5684 5723 5735 5738 5739 5742 5747 5746 5747 5749 5751 5754 5756 5756 5754 5755 5755 5754 5752 5749 5747 5745 5741 5737 5732 5729 5725 5723 5721 5719 5714 5712 5701 5697 5693 5690 5686 5680 5676 5671 5665 5657
5682 5681 5661 5654 5656 5673 5673 5677 5719 5739 5743 5740 5736 5734 5739 5745 5745 5748 5749 5749 5750 5749 5748 5745 5743 5744 5743 5742 5741 5738 5733 5729 5727 5724 5723 5720 5717 5714 5708 5703 5695 5689 5685 5681 5676 5672 5666 5660 5652
5677 5666 5702 5665 5650 5653 5678 5690 5722 5735 5733 5731 5730 5727 5731 5734 5736 5738 5744 5746 5746 5745 5743 5740 5738 5737 5734 5730 5730 5732 5729 5726 5725 5721 5717 5715 5711 5707 5701 5694 5689 5685 5681 5676 5670 5665 5659 5650 5643
5688 5694 5661 5659 5650 5648 5670 5678 5706 5718 5723 5725 5723 5722 5722 5722 5723 5724 5727 5729 5731 5733 5734 5733 5732 5732 5732 5728 5724 5720 5719 5721 5719 5714 5712 5708 5703 5697 5694 5689 5684 5680 5676 5669 5662 5656 5649 5641 5635
5671 5673 5672 5673 5667 5664 5664 5683 5714 5726 5733 5720 5719 5716 5718 5718 5717 5716 5715 5717 5719 5720 5721 5723 5723 5723 5725 5723 5719 5715 5714 5711 5706 5704 5702 5699 5693 5688 5685 5682 5677 5673 5667 5660 5653 5647 5641 5634 5629
5689 5686 5679 5667 5658 5658 5672 5684 5713 5716 5722 5716 5708 5707 5709 5705 5706 5707 5703 5705 5707 5706 5709 5711 5712 5711 5713 5714 5715 5711 5706 5700 5697 5695 5692 5687 5683 5678 5676 5671 5668 5662 5656 5652 5646 5640 5634 5629 5623